FW8507 Weather Reports


time (UTC)temp
F
wind
direction
speed
knots
gust
knots
rain 1hr
in
rain 24hr
in
rain mn
in
humidity
%
barometer
mb
20260504044547 72 82 1.7 7.8 0.00 0.02 0.00 75 1018.5
20260504043044 72 131 0.9 7.8 0.00 0.02 0.00 75 1018.5
20260504041542 72 98 2.6 9.6 0.00 0.02 0.00 75 1018.8
20260504040038 72 190 1.7 6.1 0.00 0.02 0.00 74 1019.0
20260504034541 73 118 1.7 8.7 0.00 0.02 0.02 73 1018.9
20260504033037 73 110 0.9 6.1 0.00 0.02 0.02 73 1019.0
20260504031537 73 147 3.5 10.4 0.00 0.02 0.02 72 1019.0
20260504030041 73 83 3.5 7.8 0.00 0.02 0.02 72 1018.7
20260504024536 74 138 1.7 6.1 0.00 0.05 0.02 73 1018.7
20260504023035 74 146 1.7 10.4 0.00 0.05 0.02 72 1018.5
20260504021535 74 79 2.6 7.0 0.00 0.05 0.02 72 1018.4
20260504020038 75 136 3.5 8.7 0.00 0.05 0.02 71 1018.2
20260504014541 75 26 0.9 2.6 0.00 0.05 0.02 67 1018.1
20260504013035 74 5 0.0 0.9 0.00 0.05 0.02 67 1017.8
20260504011533 75 5 0.0 4.3 0.00 0.05 0.02 66 1017.9
20260504010033 75 340 0.0 4.3 0.00 0.05 0.02 67 1017.5
20260504004532 75 47 0.9 3.5 0.00 0.05 0.02 67 1017.5
20260504003031 75 302 1.7 7.8 0.00 0.05 0.02 66 1017.4
20260504001533 75 326 0.9 7.0 0.00 0.05 0.02 66 1017.2
20260504000030 76 313 2.6 7.8 0.00 0.05 0.02 65 1017.0
20260503234543 77 329 4.3 9.6 0.00 0.05 0.02 63 1016.9
20260503233031 78 360 0.0 3.5 0.00 0.05 0.02 60 1016.9
20260503231529 78 143 1.7 4.3 0.00 0.05 0.02 60 1016.7
20260503230029 78 150 0.9 6.1 0.00 0.05 0.02 59 1016.7
20260503224528 78 152 1.7 5.2 0.00 0.08 0.02 59 1016.7
20260503223028 78 84 0.9 4.3 0.00 0.08 0.02 60 1016.7
20260503221527 78 119 0.9 5.2 0.00 0.08 0.02 59 1016.7
20260503220042 78 146 1.7 6.1 0.00 0.08 0.02 60 1016.9
20260503214528 78 9 2.6 7.0 0.00 0.14 0.02 60 1016.8
20260503213027 78 160 1.7 7.0 0.00 0.14 0.02 61 1016.9
20260503211525 78 61 1.7 5.2 0.00 0.14 0.02 62 1016.9
20260503210025 78 128 1.7 7.0 0.00 0.14 0.02 62 1016.9
20260503204525 78 80 1.7 7.8 0.00 0.17 0.02 60 1017.1
20260503203030 79 112 0.9 7.8 0.00 0.17 0.02 60 1017.3
20260503201521 79 96 0.9 6.1 0.00 0.17 0.02 61 1017.4
20260503200020 77 123 1.7 7.8 0.00 0.17 0.02 62 1017.7
20260503194522 77 144 5.2 8.7 0.00 0.60 0.02 62 1017.8
20260503193019 77 158 4.3 10.4 0.00 0.60 0.02 64 1018.0
20260503191521 77 172 3.5 8.7 0.00 0.60 0.02 63 1018.2
20260503190015 76 153 4.3 8.7 0.00 0.60 0.02 64 1018.6
20260503184514 76 135 2.6 10.4 0.00 0.60 0.02 65 1018.8
20260503183012 75 93 1.7 8.7 0.00 0.60 0.02 67 1019.0
20260503181510 76 134 4.3 9.6 0.00 0.60 0.02 67 1019.1
20260503180016 75 95 4.3 10.4 0.00 0.60 0.02 69 1019.2
20260503174508 75 113 4.3 9.6 0.00 0.60 0.02 68 1019.5
20260503173006 74 186 3.5 8.7 0.00 0.60 0.02 70 1019.5
20260503171504 74 51 4.3 8.7 0.00 0.60 0.02 69 1019.6
20260503081628 66 344 1.7 7.0 0.00 0.59 0.01 91 1016.7
20260503080111 66 9 1.7 5.2 0.00 0.59 0.01 91 1016.5
20260503071551 68 9 2.6 7.0 0.01 0.59 0.01 91 1015.9